E23XBQ-1 Weather Reports


time (UTC)temp
C
wind
direction
speed
KPH
gust
KPH
rain 1hr
cm
rain 24hr
cm
rain mn
cm
humidity
%
barometer
mb
20260509033008 31 0 0.0 0.0 0.00 0.00 0.00 75 975.0
20260509031943 30 0 0.0 0.0 0.00 0.00 0.00 76 976.0
20260509030918 31 0 0.0 0.0 0.00 0.00 0.00 73 976.0
20260509025854 29 0 0.0 0.0 0.00 0.00 0.00 83 976.0
20260509024829 28 0 0.0 0.0 0.00 0.00 0.00 86 976.0
20260509023805 28 0 0.0 0.0 0.00 0.00 0.00 86 976.0
20260509022741 28 0 0.0 0.0 0.00 0.00 0.00 93 976.0
20260509021717 27 0 0.0 0.0 0.00 0.00 0.00 96 976.0
20260509020652 27 0 0.0 0.0 0.00 0.00 0.00 99 976.0
20260509015628 27 0 0.0 0.0 0.00 0.00 0.00 99 976.0
20260509014604 26 0 0.0 0.0 0.00 0.00 0.00 99 976.0
20260509013536 26 0 0.0 0.0 0.00 0.00 0.00 99 976.0
20260509013422 26 0 0.0 0.0 0.00 0.00 0.00 99 976.0
20260509012357 26 0 0.0 0.0 0.00 0.00 0.00 99 976.0
20260509011333 26 0 0.0 0.0 0.00 0.00 0.00 99 976.0
20260509010308 26 0 0.0 0.0 0.00 0.00 0.00 99 976.0
20260509005245 26 0 0.0 0.0 0.00 0.00 0.00 99 976.0
20260509004219 25 0 0.0 0.0 0.00 0.00 0.00 99 976.0
20260509003154 25 0 0.0 0.0 0.00 0.00 0.00 99 975.0
20260509002129 25 0 0.0 0.0 0.00 0.00 0.00 99 975.0
20260509001114 25 0 0.0 0.0 0.00 0.00 0.00 99 97.5
20260509001105 25 0 0.0 0.0 0.00 0.00 0.00 99 975.0
20260509000040 25 0 0.0 0.0 0.00 0.00 0.00 99 975.0
20260508235016 25 0 0.0 0.0 0.00 0.00 0.00 99 975.0
20260508234341 25 0 0.0 0.0 0.00 0.00 0.00 99 975.0
20260508233315 25 0 0.0 0.0 0.00 0.00 0.00 99 975.0
20260508232502 25 0 0.0 0.0 0.00 0.00 0.00 99 974.0
20260508231438 25 0 0.0 0.0 0.00 0.00 0.00 99 974.0
20260508230413 25 0 0.0 0.0 0.00 0.00 0.00 99 974.0
20260508225348 25 0 0.0 0.0 0.00 0.00 0.00 99 974.0
20260508224324 25 0 0.0 0.0 0.00 0.00 0.00 99 974.0
20260508223259 25 0 0.0 0.0 0.00 0.00 0.00 99 974.0
20260508222235 25 0 0.0 0.0 0.00 0.00 0.00 99 974.0
20260508221224 25 0 0.0 0.0 0.00 0.00 0.00 99 97.4
20260508221210 25 0 0.0 0.0 0.00 0.00 0.00 99 974.0
20260508220140 25 0 0.0 0.0 0.00 0.00 0.00 99 974.0
20260508215113 25 0 0.0 0.0 0.00 0.00 0.00 99 974.0
20260508214049 25 0 0.0 0.0 0.00 0.00 0.00 99 974.0
20260508213024 25 0 0.0 0.0 0.00 0.00 0.00 99 974.0
20260508212000 25 0 0.0 0.0 0.00 0.00 0.00 99 973.0
20260508210935 25 0 0.0 0.0 0.00 0.00 0.00 99 973.0
20260508205910 25 0 0.0 0.0 0.00 0.00 0.00 99 973.0
20260508204845 25 0 0.0 0.0 0.00 0.00 0.00 99 973.0
20260508203821 25 0 0.0 0.0 0.00 0.00 0.00 99 973.0
20260508202756 26 0 0.0 0.0 0.00 0.00 0.00 99 973.0
20260508201732 26 0 0.0 0.0 0.00 0.00 0.00 99 973.0
20260508200708 25 0 0.0 0.0 0.00 0.00 0.00 99 973.0
20260508195644 26 0 0.0 0.0 0.00 0.00 0.00 99 973.0
20260508194619 26 0 0.0 0.0 0.00 0.00 0.00 94 973.0
20260508193555 26 0 0.0 0.0 0.00 0.00 0.00 93 973.0
20260508192531 26 0 0.0 0.0 0.00 0.00 0.00 94 973.0
20260508191506 26 0 0.0 0.0 0.00 0.00 0.00 98 973.0
20260508190442 26 0 0.0 0.0 0.00 0.00 0.00 92 973.0
20260508185423 27 0 0.0 0.0 0.00 0.00 0.00
20260508185417 27 0 0.0 0.0 0.00 0.00 0.00 88 973.0
20260508184352 26 0 0.0 0.0 0.00 0.00 0.00 86 973.0
20260508183328 26 0 0.0 0.0 0.00 0.00 0.00 86 973.0
20260508182312 26 0 0.0 0.0 0.00 0.00 0.00 87 973.0
20260508182306 26 0 0.0 0.0 0.00 0.00 0.00 87 973.0
20260508181240 26 0 0.0 0.0 0.00 0.00 0.00 88 973.0
20260508180215 26 0 0.0 0.0 0.00 0.00 0.00 86 973.0
20260508175150 27 0 0.0 0.0 0.00 0.00 0.00 85 973.0
20260508174126 27 0 0.0 0.0 0.00 0.00 0.00 85 973.0
20260508173101 27 0 0.0 0.0 0.00 0.00 0.00 85 973.0
20260508172036 27 0 0.0 0.0 0.00 0.00 0.00 82 973.0
20260508171628 27 0 0.0 0.0 0.00 0.00 0.00 83 973.0
20260508170603 27 0 0.0 0.0 0.00 0.00 0.00 82 973.0
20260508165538 27 0 0.0 0.0 0.00 0.00 0.00 82 973.0
20260508164513 27 0 0.0 0.0 0.00 0.00 0.00 84 973.0
20260508163448 26 0 0.0 0.0 0.00 0.00 0.00 88 973.0
20260508162423 26 0 0.0 0.0 0.00 0.00 0.00 95 974.0
20260508161359 26 0 0.0 0.0 0.00 0.00 0.00 99 974.0
20260508160334 26 0 0.0 0.0 0.00 0.00 0.00 99 974.0
20260508155310 26 0 0.0 0.0 0.00 0.00 0.00 94 974.0
20260508154245 26 0 0.0 0.0 0.00 0.00 0.00 93 973.0
20260508153243 26 0 0.0 0.0 0.00 0.00 0.00 92 973.0
20260508153220 26 0 0.0 0.0 0.00 0.00 0.00 92 973.0
20260508152200 26 0 0.0 0.0 0.00 0.00 0.00 88 973.0
20260508152155 26 0 0.0 0.0 0.00 0.00 0.00 88 973.0
20260508151130 26 0 0.0 0.0 0.00 0.00 0.00 93 973.0
20260508150106 26 0 0.0 0.0 0.00 0.00 0.00 89 973.0
20260508145041 26 0 0.0 0.0 0.00 0.00 0.00 89 973.0
20260508144016 26 0 0.0 0.0 0.00 0.00 0.00 86 972.0
20260508143003 26 0 0.0 0.0 0.00 0.00 0.00 91 972.0
20260508142952 26 0 0.0 0.0 0.00 0.00 0.00 91 972.0
20260508141933 26 0 0.0 0.0 0.00 0.00 0.00 84 972.0
20260508141927 26 0 0.0 0.0 0.00 0.00 0.00 84 972.0
20260508140903 27 0 0.0 0.0 0.00 0.00 0.00 84 972.0
20260508135839 27 0 0.0 0.0 0.00 0.00 0.00 79 972.0
20260508134814 27 0 0.0 0.0 0.00 0.00 0.00 74 971.0
20260508133750 27 0 0.0 0.0 0.00 0.00 0.00 69 971.0
20260508132726 28 0 0.0 0.0 0.00 0.00 0.00 69 971.0
20260508131657 28 0 0.0 0.0 0.00 0.00 0.00 62 971.0
20260508130632 28 0 0.0 0.0 0.00 0.00 0.00 56 971.0
20260508125607 28 0 0.0 0.0 0.00 0.00 0.00 55 970.0
20260508124542 28 0 0.0 0.0 0.00 0.00 0.00 54 970.0
20260508123518 29 0 0.0 0.0 0.00 0.00 0.00 51 970.0
20260508122454 29 0 0.0 0.0 0.00 0.00 0.00 51 970.0
20260508121429 29 0 0.0 0.0 0.00 0.00 0.00 51 970.0
20260508120405 29 0 0.0 0.0 0.00 0.00 0.00 51 970.0
20260508115341 29 0 0.0 0.0 0.00 0.00 0.00 52 970.0
20260508114317 30 0 0.0 0.0 0.00 0.00 0.00 53 970.0
20260508113252 30 0 0.0 0.0 0.00 0.00 0.00 54 970.0
20260508112228 31 0 0.0 0.0 0.00 0.00 0.00 60 969.0
20260508111203 31 0 0.0 0.0 0.00 0.00 0.00 61 969.0
20260508110138 32 0 0.0 0.0 0.00 0.00 0.00 69 969.0
20260508105114 32 0 0.0 0.0 0.00 0.00 0.00 66 969.0
20260508104048 32 0 0.0 0.0 0.00 0.00 0.00 64 968.0
20260508103024 32 0 0.0 0.0 0.00 0.00 0.00 75 968.0
20260508101959 32 0 0.0 0.0 0.00 0.00 0.00 68 968.0
20260508100935 33 0 0.0 0.0 0.00 0.00 0.00 58 968.0
20260508095910 33 0 0.0 0.0 0.00 0.00 0.00 55 968.0
20260508094851 -17 0 0.0 0.0 0.00 0.00 0.00
20260508094846 35 0 0.0 0.0 0.00 0.00 0.00 48 968.0
20260508093822 35 0 0.0 0.0 0.00 0.00 0.00 46 968.0
20260508093429 35 0 0.0 0.0 0.00 0.00 0.00 46 968.0
20260508092404 35 0 0.0 0.0 0.00 0.00 0.00 46 968.0
20260508091344 35 0 0.0 0.0 0.00 0.00 0.00 45 968.0
20260508091340 35 0 0.0 0.0 0.00 0.00 0.00 45 968.0
20260508090316 35 0 0.0 0.0 0.00 0.00 0.00 46 968.0
20260508085250 36 0 0.0 0.0 0.00 0.00 0.00 45 968.0
20260508084225 36 0 0.0 0.0 0.00 0.00 0.00 41 968.0
20260508083201 36 0 0.0 0.0 0.00 0.00 0.00 45 969.0
20260508082137 36 0 0.0 0.0 0.00 0.00 0.00 44 969.0
20260508081113 35 0 0.0 0.0 0.00 0.00 0.00 44 969.0
20260508080048 36 0 0.0 0.0 0.00 0.00 0.00 45 969.0
20260508075024 36 0 0.0 0.0 0.00 0.00 0.00 45 969.0
20260508074000 36 0 0.0 0.0 0.00 0.00 0.00 45 970.0
20260508072935 36 0 0.0 0.0 0.00 0.00 0.00 46 970.0
20260508071911 37 0 0.0 0.0 0.00 0.00 0.00 47 970.0
20260508070846 36 0 0.0 0.0 0.00 0.00 0.00 51 970.0
20260508065822 35 0 0.0 0.0 0.00 0.00 0.00 51 971.0
20260508064758 35 0 0.0 0.0 0.00 0.00 0.00 52 971.0
20260508064139 34 0 0.0 0.0 0.00 0.00 0.00 53 971.0
20260508063115 33 0 0.0 0.0 0.00 0.00 0.00 55 971.0
20260508062050 33 0 0.0 0.0 0.00 0.00 0.00 60 972.0
20260508061026 33 0 0.0 0.0 0.00 0.00 0.00 57 972.0
20260508060002 32 0 0.0 0.0 0.00 0.00 0.00 66 972.0
20260508054937 32 0 0.0 0.0 0.00 0.00 0.00 67 972.0
20260508053913 32 0 0.0 0.0 0.00 0.00 0.00 69 973.0
20260508052848 33 0 0.0 0.0 0.00 0.00 0.00 65 973.0
20260508051824 32 0 0.0 0.0 0.00 0.00 0.00 66 973.0
20260508050800 32 0 0.0 0.0 0.00 0.00 0.00 66 973.0
20260508045735 32 0 0.0 0.0 0.00 0.00 0.00 67 974.0
20260508044709 32 0 0.0 0.0 0.00 0.00 0.00 64 974.0
20260508043644 32 0 0.0 0.0 0.00 0.00 0.00 70 974.0
20260508042619 32 0 0.0 0.0 0.00 0.00 0.00 68 974.0
20260508041554 32 0 0.0 0.0 0.00 0.00 0.00 68 974.0
20260508040530 31 0 0.0 0.0 0.00 0.00 0.00 72 974.0
20260508035505 31 0 0.0 0.0 0.00 0.00 0.00 70 974.0
20260508034440 31 0 0.0 0.0 0.00 0.00 0.00 68 974.0
20260508033349 31 0 0.0 0.0 0.00 0.00 0.00 71 975.0